Regional Weather Roundup
Issued by NWS

Home | Current Version | Previous Version | Graphics & Text | Print | Product List | Glossary On
Versions: 1 2 3 4 5 6 7 8 9 10 11 12 13 14 15 16 17 18 19 20 21 22 23 24 25 26 27 28 29 30 31 32 33 34 35 36 37 38 39 40 41 42 43 44 45 46 47 48 49 50
000
ASUS43 KDTX 092301
RWRMI
MICHIGAN HOURLY REGIONAL WEATHER ROUNDUP
NATIONAL WEATHER SERVICE DETROIT/PONTIAC MI
600 PM EST TUE FEB 09 2016

NOTE: "FAIR" INDICATES FEW OR NO CLOUDS BELOW 12,000 FEET WITH NO
SIGNIFICANT WEATHER AND/OR OBSTRUCTION TO VISIBILITY.

MIZ047>049-052>055-059>063-066>070-074>076-081>083-100000-
SOUTHEAST LOWER MICHIGAN

CITY           SKY/WX    TMP DP  RH WIND       PRES   REMARKS
ADRIAN         CLOUDY    27  18  69 NW17G26   29.70R WCI  14
ALMA           CLOUDY    27  20  77 W15G24    29.69R WCI  15
ANN ARBOR      CLOUDY    26  19  74 NW17      29.66R WCI  13
BAD AXE        LGT SNOW  28  26  93 NW13      29.59R WCI  18
CARO           CLOUDY    27  25  93 W12G18    29.62R WCI  16
DETROIT CITY   LGT SNOW  28  22  78 W12G22    29.65R VSB 1   WCI  18
DETROIT        LGT SNOW  28  21  75 W16       29.67R WCI  16
FLINT          LGT SNOW  28  22  78 W17       29.65R WCI  16
GROSSE ILE     LGT SNOW  27  25  93 W10G20    29.65R WCI  17
HILLSDALE      FLURRIES  25  19  76 W16       29.69R WCI  12
HOWELL         CLOUDY    26  21  81 W20G25    29.65R WCI  13

CITY           SKY/WX    TMP DP  RH WIND       PRES   REMARKS
JACKSON        CLOUDY    25  16  68 W17G25    29.69R WCI  12
LAMBERTVILLE   CLOUDY    28  21  75 W12G18    29.70R WCI  17
LANSING        CLOUDY    25  17  72 W18G25    29.70R WCI  11
LAPEER         LGT SNOW  26  24  91 W12G17    29.62R WCI  15
MASON          CLOUDY    25  19  77 W10G18    29.69R WCI  15
MONROE         LGT SNOW  28  23  82 W17G23    29.67R WCI  15
MT. CLEMENS    LGT SNOW  28  23  82 W17G23    29.60R WCI  16
PONTIAC        LGT SNOW  25  22  88 W15       29.62R VSB 1   WCI  13
PORT HOPE        N/A     29  27  92 NW24G32   29.56R WCI  15
PORT HURON     LGT SNOW  27  25  93 W9        29.60R WCI  17
TRI CITIES     LGT SNOW  27  20  75 NW15      29.66R WCI  15
MIDLAND        LGT SNOW  26  20  76 W10       29.65R WCI  16
TROY           LGT SNOW  29  24  82 W16       29.65R WCI  17
SAGINAW HB     LGT SNOW  28  25  86 W13       29.65R WCI  18
$$
MIZ043>046-050>051-056>058-064>065-071>073-077>080-100000-
SOUTHWEST LOWER MICHIGAN

CITY           SKY/WX    TMP DP  RH WIND       PRES   REMARKS
BATTLE CREEK   LGT SNOW  24  17  74 NW14G21   29.73R WCI  12
BENTON HARBOR  LGT SNOW  23  17  78 NW12      29.82R WCI  12
BIG RAPIDS     CLOUDY    24  18  77 NW13G20   29.70R WCI  12
COLDWATER      LGT SNOW  25  20  79 W14G20    29.73R WCI  14
FREMONT        FLURRIES  23  17  77 NW15G24   29.75R WCI  10
HOLLAND        SNOW      24  19  81 NW12G21   29.79R VSB 1/2 WCI  13
GRAND RAPIDS   FLURRIES  25  19  78 NW15G21   29.74R WCI  13
IONIA          CLOUDY    25  18  73 W16G22    29.70R WCI  12
KALAMAZOO      FLURRIES  25  17  72 W20       29.76R WCI  11
LUDINGTON      LGT SNOW  22  18  83 NW14G22   29.79R WCI   9
MARSHALL       CLOUDY    26  17  70 W17       29.71R WCI  12
MOUNT PLEASANT CLOUDY    27  18  68 W14       29.67R WCI  16
MUSKEGON       LGT SNOW  24  16  71 NW16G24   29.79R WCI  11
SOUTH HAVEN    LGT SNOW  24  19  79 NW13G20   29.80R WCI  13
$$
MIZ016>042-100000-
NORTHERN LOWER MICHIGAN

CITY           SKY/WX    TMP DP  RH WIND       PRES   REMARKS
ALPENA         LGT SNOW  25  21  85 NW8       29.62R FOG     WCI  16
BEAVER ISLAND  LGT SNOW  21  15  79 NW15G22   29.73R WCI   7
BELLAIRE       LGT SNOW  24  20  87 NW5       29.72R VSB 1   WCI  18
CADILLAC       FLURRIES  22  16  78 NW16G24   29.66R WCI   8
CHARLEVOIX     LGT SNOW  23  19  85 N17G25    29.74R WCI   9
FRANKFORT      LGT SNOW  23  16  74 NW16      29.77R WCI  10
GAYLORD        LGT SNOW  20  15  81 NW7       29.63R WCI  11
GRAYLING       LGT SNOW  23  18  80 NW14G26   29.64R WCI  11
HARBOR SPRINGS LGT SNOW  20  15  79 W8        29.69R WCI  11
HOUGHTON LAKE  LGT SNOW  23  17  78 NW18G26   29.64R WCI   9
MANISTEE       CLOUDY    23  16  74 NW15G28   29.77R WCI  10
OSCODA         LGT SNOW  27  23  85 NW12      29.60R WCI  17
PELLSTON       LGT SNOW  19  14  81 NW18      29.69R WCI   4
ROGERS CITY    LGT SNOW  24  20  85 NW10G22   29.64R WCI  14
TRAVERSE CITY  LGT SNOW  24  18  77 NW15G23   29.73R WCI  11
$$
MIZ007>008-015-100000-
EASTERN UPPER MICHIGAN

CITY           SKY/WX    TMP DP  RH WIND       PRES   REMARKS
KINROSS        CLOUDY    21  19  93 NW14      29.65R WCI   8
MACKINAC ISLAN LGT SNOW  19  15  82 NW17G23   29.67R WCI   4
NEWBERRY       LGT SNOW  16  13  86 N15G23    29.71R WCI   2
S. S. MARIE    LGT SNOW  21  13  71 N12       29.66R WCI   9
$$
MIZ004>006-011>014-085-100000-
CENTRAL UPPER MICHIGAN

CITY           SKY/WX    TMP DP  RH WIND       PRES   REMARKS
MANISTIQUE     LGT SNOW  18  11  75 N20G30    29.74R WCI   1
ESCANABA       CLOUDY    16   9  73 NW15G24   29.81S WCI   1
MENOMINEE      CLOUDY    14   7  73 NW10G20   29.87R WCI   1
SAWYER-GWINN   LGT SNOW  10   9  92 N21       29.80R VSB 3/4 WCI  -9
$$
MIZ001>003-009>011-084-100000-
WESTERN UPPER MICHIGAN

CITY           SKY/WX    TMP DP  RH WIND       PRES   REMARKS
IRON MOUNTAIN  LGT SNOW  12   2  64 NW16G30   29.84R WCI  -5
HOUGHTON       LGT SNOW  11   2  67 N15       29.92R WCI  -5
COPPER HARBOR    N/A     15  11  83 NE21G39   29.93R WCI  -2
IRONWOOD       CLOUDY    10   7  85 N9G17     29.96R WCI  -2
$$

ABBREVIATIONS USED IN REMARKS
   TC - TEMPERATURE IN CELSIUS
  WCI - WIND CHILL INDEX
   HX - HEAT INDEX
  VSB - VISIBILITY




USA.gov is the U.S. government's official web portal to all federal, state and local government web resources and services.